Weather History for Taos, NM

Change the Weather History Date:

Monday, February 18, 2013

  Actual Average Record
Temperature  
Mean Temperature 30 °F -  
Max Temperature 42 °F 43 °F 60 °F (2014)
Min Temperature 15 °F 17 °F 12 °F (2008)
Degree Days  
Heating Degree Days 36    
Moisture  
Dew Point 5 °F    
Average Humidity 38    
Maximum Humidity 68    
Minimum Humidity 16    
Precipitation  
Precipitation 0.00 in - - ()
Sea Level Pressure  
Sea Level Pressure 29.98 in    
Wind  
Wind Speed 9 mph (West)    
Max Wind Speed 20 mph    
Max Gust Speed 26 mph    
Visibility 10 miles    
Events      
Averages and records for this station are not official NWS values.
T = Trace of Precipitation, MM = Missing Value Source: NWS Daily Summary

Daily Weather History Graph

Daily Weather History Graph

Search for Another Location

Airport:

Trip Planner

Search our weather history database for the weather conditions in past years. The results will help you decide how hot, cold, wet, or windy it might be!

Date:

Astronomy

Feb. 18, 2013 Rise Set
Actual Time 6:46 AM MST 5:46 PM MST
Civil Twilight 6:20 AM MST 6:13 PM MST
Nautical Twilight 5:50 AM MST 6:43 PM MST
Astronomical Twilight 5:20 AM MST 7:13 PM MST
Moon 11:39 AM MST (2/18) 1:24 AM MST (2/18)
Length of Visible Light 11h 52m
Length of Day
11h 00m
First Quarter, 59% of the Moon is Illuminated
Feb 18
First Quarter
Feb 25
Full
Mar 4
Last Quarter
Mar 11
New
Mar 19
First Quarter

Hourly Weather History & Observations

Time (MST) Temp. Windchill Dew Point Humidity Pressure Visibility Wind Dir Wind Speed Gust Speed Precip Events Conditions
12:15 AM 24.8 °F - 10.4 °F 54% 29.77 in 10.0 mi Calm Calm - N/A   Clear
12:35 AM 24.8 °F 17.9 °F 8.6 °F 50% 29.78 in 10.0 mi WNW 5.8 mph - N/A   Clear
12:55 AM 17.6 °F 10.7 °F 8.6 °F 68% 29.78 in 10.0 mi North 4.6 mph - N/A   Clear
1:15 AM 19.4 °F 14.3 °F 6.8 °F 58% 29.78 in 10.0 mi NNW 3.5 mph - N/A   Clear
1:35 AM 21.2 °F 10.9 °F 6.8 °F 54% 29.78 in 10.0 mi NNE 9.2 mph - N/A   Clear
2:15 AM 28.4 °F 23.3 °F 8.6 °F 43% 29.78 in 10.0 mi NE 4.6 mph - N/A   Clear
2:35 AM 30.2 °F 24.3 °F 10.4 °F 44% 29.77 in 10.0 mi SSE 5.8 mph - N/A   Clear
2:55 AM 28.4 °F 19.1 °F 8.6 °F 43% 29.78 in 10.0 mi West 10.4 mph - N/A   Clear
3:15 AM 30.2 °F 19.3 °F 10.4 °F 44% 29.79 in 10.0 mi West 15.0 mph - N/A   Clear
3:35 AM 30.2 °F 20.2 °F 10.4 °F 44% 29.79 in 10.0 mi WSW 12.7 mph - N/A   Clear
3:55 AM 28.4 °F 18.5 °F 8.6 °F 43% 29.80 in 10.0 mi WSW 11.5 mph - N/A   Clear
4:15 AM 26.6 °F 15.7 °F 8.6 °F 47% 29.81 in 10.0 mi WSW 12.7 mph - N/A   Clear
4:35 AM 26.6 °F 14.7 °F 10.4 °F 51% 29.82 in 10.0 mi WSW 15.0 mph - N/A   Clear
4:55 AM 26.6 °F 13.8 °F 10.4 °F 51% 29.83 in 10.0 mi WSW 17.3 mph - N/A   Clear
5:15 AM 28.4 °F 17.0 °F 10.4 °F 47% 29.84 in 10.0 mi WSW 15.0 mph - N/A   Clear
5:35 AM 28.4 °F 19.1 °F 10.4 °F 47% 29.87 in 10.0 mi SW 10.4 mph - N/A   Clear
5:55 AM 28.4 °F 19.1 °F 10.4 °F 47% 29.89 in 10.0 mi WSW 10.4 mph - N/A   Clear
6:15 AM 26.6 °F 16.8 °F 8.6 °F 47% 29.90 in 10.0 mi SW 10.4 mph - N/A   Clear
6:35 AM 26.6 °F 17.5 °F 8.6 °F 47% 29.91 in 10.0 mi SW 9.2 mph - N/A   Clear
6:55 AM 24.8 °F 14.0 °F 8.6 °F 50% 29.91 in 10.0 mi West 11.5 mph - N/A   Clear
7:15 AM 26.6 °F 16.8 °F 8.6 °F 47% 29.93 in 10.0 mi West 10.4 mph - N/A   Clear
7:35 AM 26.6 °F 17.5 °F 8.6 °F 47% 29.95 in 10.0 mi West 9.2 mph - N/A   Clear
7:55 AM 28.4 °F 19.1 °F 8.6 °F 43% 29.96 in 10.0 mi WNW 10.4 mph - N/A   Clear
8:15 AM 30.2 °F 20.8 °F 8.6 °F 40% 29.98 in 10.0 mi North 11.5 mph - N/A   Clear
8:35 AM 30.2 °F 18.5 °F 8.6 °F 40% 29.99 in 10.0 mi NNE 17.3 mph 21.9 mph N/A   Clear
8:55 AM 30.2 °F 18.5 °F 8.6 °F 40% 30.00 in 10.0 mi NNE 17.3 mph 24.2 mph N/A   Clear
9:15 AM 32.0 °F 20.1 °F 8.6 °F 38% 30.01 in 10.0 mi NNE 19.6 mph 24.2 mph N/A   Clear
9:35 AM 32.0 °F 20.8 °F 6.8 °F 35% 30.02 in 10.0 mi North 17.3 mph 26.5 mph N/A   Clear
9:55 AM 33.8 °F 23.5 °F 6.8 °F 32% 30.02 in 10.0 mi North 16.1 mph 24.2 mph N/A   Clear
10:15 AM 33.8 °F 23.2 °F 3.2 °F 28% 30.03 in 10.0 mi North 17.3 mph 20.7 mph N/A   Clear
10:35 AM 33.8 °F 23.9 °F 3.2 °F 28% 30.04 in 10.0 mi North 15.0 mph 23.0 mph N/A   Clear
10:55 AM 35.6 °F 28.0 °F 5.0 °F 28% 30.05 in 10.0 mi North 10.4 mph 23.0 mph N/A   Clear
11:15 AM 35.6 °F 29.2 °F 3.2 °F 26% 30.05 in 10.0 mi NNE 8.1 mph 17.3 mph N/A   Clear
11:35 AM 35.6 °F 28.6 °F 3.2 °F 26% 30.05 in 10.0 mi North 9.2 mph 17.3 mph N/A   Clear
11:55 AM 37.4 °F 32.1 °F 1.4 °F 22% 30.04 in 10.0 mi NNW 6.9 mph - N/A   Clear
12:15 PM 35.6 °F 31.7 °F 1.4 °F 24% 30.03 in 10.0 mi NW 4.6 mph - N/A   Clear
12:35 PM 37.4 °F 33.8 °F 3.2 °F 24% 30.02 in 10.0 mi NNE 4.6 mph - N/A   Clear
12:55 PM 39.2 °F 33.0 °F 5.0 °F 24% 30.01 in 10.0 mi NW 9.2 mph - N/A   Clear
1:15 PM 39.2 °F - 6.8 °F 26% 30.01 in 10.0 mi Calm Calm - N/A   Clear
1:35 PM 39.2 °F 37.0 °F 3.2 °F 22% 30.01 in 10.0 mi South 3.5 mph - N/A   Clear
1:55 PM 39.2 °F - 6.8 °F 26% 30.00 in 10.0 mi Calm Calm - N/A   Clear
2:15 PM 41.0 °F 33.9 °F 6.8 °F 24% 30.00 in 10.0 mi SSW 12.7 mph - N/A   Clear
2:35 PM 41.0 °F 34.7 °F 6.8 °F 24% 30.00 in 10.0 mi South 10.4 mph - N/A   Clear
2:55 PM 42.8 °F 38.6 °F 6.8 °F 23% 30.00 in 10.0 mi SW 6.9 mph - N/A   Clear
3:15 PM 42.8 °F 37.5 °F 3.2 °F 19% 30.00 in 10.0 mi South 9.2 mph 20.7 mph N/A   Clear
3:35 PM 42.8 °F 34.8 °F 3.2 °F 19% 29.99 in 10.0 mi SW 17.3 mph 23.0 mph N/A   Clear
3:55 PM 42.8 °F 35.4 °F 1.4 °F 18% 29.99 in 10.0 mi SW 15.0 mph - N/A   Clear
4:15 PM 42.8 °F 35.1 °F 1.4 °F 18% 30.00 in 10.0 mi West 16.1 mph - N/A   Clear
4:35 PM 42.8 °F 34.8 °F -0.4 °F 16% 30.00 in 10.0 mi WSW 17.3 mph - N/A   Clear
4:55 PM 41.0 °F 33.5 °F -0.4 °F 18% 30.02 in 10.0 mi West 13.8 mph - N/A   Clear
5:15 PM 39.2 °F 32.0 °F -2.2 °F 17% 30.02 in 10.0 mi West 11.5 mph - N/A   Clear
5:35 PM 37.4 °F 31.4 °F -2.2 °F 19% 30.03 in 10.0 mi West 8.1 mph - N/A   Clear
5:55 PM 33.8 °F 26.4 °F -2.2 °F 22% 30.04 in 10.0 mi West 9.2 mph - N/A   Clear
6:15 PM 30.2 °F 21.9 °F -2.2 °F 25% 30.04 in 10.0 mi WSW 9.2 mph - N/A   Clear
6:35 PM 28.4 °F 18.5 °F -2.2 °F 27% 30.05 in 10.0 mi West 11.5 mph - N/A   Clear
6:55 PM 26.6 °F 17.5 °F -0.4 °F 31% 30.06 in 10.0 mi West 9.2 mph - N/A   Clear
7:15 PM 24.8 °F 20.5 °F -0.4 °F 34% 30.07 in 10.0 mi West 3.5 mph - N/A   Clear
7:35 PM 28.4 °F 24.6 °F 1.4 °F 31% 30.08 in 10.0 mi WNW 3.5 mph - N/A   Clear
7:55 PM 26.6 °F 21.2 °F 1.4 °F 34% 30.08 in 10.0 mi WNW 4.6 mph - N/A   Clear
8:15 PM 24.8 °F - 1.4 °F 36% 30.09 in 10.0 mi Calm Calm - N/A   Clear
8:35 PM 19.4 °F 10.4 °F 1.4 °F 46% 30.09 in 10.0 mi ESE 6.9 mph - N/A   Clear
8:55 PM 21.2 °F 16.4 °F 6.8 °F 54% 30.10 in 10.0 mi East 3.5 mph - N/A   Clear
9:15 PM 19.4 °F 12.8 °F 1.4 °F 46% 30.10 in 10.0 mi ESE 4.6 mph - N/A   Clear
9:35 PM 21.2 °F 11.7 °F 3.2 °F 46% 30.11 in 10.0 mi SE 8.1 mph - N/A   Clear
9:55 PM 17.6 °F 8.2 °F 3.2 °F 53% 30.11 in 10.0 mi ESE 6.9 mph - N/A   Clear
10:15 PM 19.4 °F 9.5 °F 5.0 °F 54% 30.11 in 10.0 mi SE 8.1 mph - N/A   Clear
10:35 PM 19.4 °F 8.6 °F 5.0 °F 54% 30.12 in 10.0 mi ESE 9.2 mph - N/A   Clear
10:55 PM 19.4 °F 8.6 °F 5.0 °F 54% 30.13 in 10.0 mi ESE 9.2 mph - N/A   Clear
11:15 PM 19.4 °F 9.5 °F 5.0 °F 54% 30.12 in 10.0 mi ESE 8.1 mph - N/A   Clear
11:35 PM 17.6 °F 6.4 °F 3.2 °F 53% 30.12 in 10.0 mi East 9.2 mph - N/A   Clear
11:55 PM 15.8 °F 10.2 °F 3.2 °F 58% 30.12 in 10.0 mi East 3.5 mph - N/A   Clear